Fryeburg, ME

5:44 AM EDT on June 28, 2017 (GMT -0400)
Eastern Slopes Regional

Weather History for KIZG - February, 2014

Change the Weather History Date:

Monday, February 17, 2014

  Actual Average Record
Temperature  
Mean Temperature 11 °F -  
Max Temperature 26 °F 32 °F 50 °F (2011)
Min Temperature -5 °F 7 °F -17 °F (2015)
Degree Days  
Heating Degree Days 54    
Moisture  
Dew Point -8 °F    
Average Humidity 41    
Maximum Humidity 76    
Minimum Humidity 22    
Precipitation  
Precipitation 0.00 in - - ()
Sea Level Pressure  
Sea Level Pressure 30.18 in    
Wind  
Wind Speed 8 mph (WNW)    
Max Wind Speed 14 mph    
Max Gust Speed 24 mph    
Visibility 10 miles    
Events Snow    
Averages and records for this station are not official NWS values.
T = Trace of Precipitation, MM = Missing Value Source: NWS Daily Summary

Daily Weather History Graph

Daily Weather History Graph

Search for Another Location

Airport or City:

Trip Planner

Search our weather history database for the weather conditions in past years. The results will help you decide how hot, cold, wet, or windy it might be!

Date:

Astronomy

Feb. 17, 2014 Rise Set
Actual Time 6:39 AM EST 5:16 PM EST
Civil Twilight 6:10 AM EST 5:45 PM EST
Nautical Twilight 5:36 AM EST 6:19 PM EST
Astronomical Twilight 5:03 AM EST 6:52 PM EST
Moon 8:15 PM EST (2/17) 7:32 AM EST (2/17)
Length of Visible Light 11h 35m
Length of Day
10h 36m
Waning Gibbous, 93% of the Moon is Illuminated
Feb 17
Waning Gibbous
Feb 22
Last Quarter
Mar 1
New
Mar 8
First Quarter
Mar 16
Full

Hourly Weather History & Observations

Time (EST) Temp. Windchill Dew Point Humidity Pressure Visibility Wind Dir Wind Speed Gust Speed Precip Events Conditions
12:54 AM 12.9 °F 0.7 °F -5.1 °F 45% 29.94 in 10.0 mi West 9.2 mph - N/A   Clear
1:54 AM 12.9 °F -2.2 °F -5.1 °F 45% 29.96 in 10.0 mi West 13.8 mph 18.4 mph N/A   Clear
2:54 AM 12.9 °F 1.6 °F -5.1 °F 45% 29.96 in 10.0 mi West 8.1 mph 19.6 mph N/A   Clear
3:54 AM 10.9 °F 4.7 °F -6.0 °F 47% 29.99 in 10.0 mi Variable 3.5 mph - N/A   Clear
4:54 AM 10.9 °F -4.7 °F -7.1 °F 44% 30.02 in 10.0 mi West 13.8 mph 24.2 mph N/A   Clear
5:54 AM 10.0 °F -5.2 °F -9.0 °F 42% 30.05 in 10.0 mi West 12.7 mph 24.2 mph N/A   Clear
6:54 AM 10.0 °F -0.9 °F -9.9 °F 40% 30.10 in 10.0 mi NW 6.9 mph 18.4 mph N/A   Clear
7:54 AM 10.9 °F 0.2 °F -9.9 °F 39% 30.13 in 10.0 mi WNW 6.9 mph - N/A   Clear
8:54 AM 14.0 °F 3.9 °F -9.9 °F 34% 30.16 in 10.0 mi WNW 6.9 mph - N/A   Clear
9:54 AM 17.1 °F 10.0 °F -9.9 °F 30% 30.17 in 10.0 mi Variable 4.6 mph - 0.00 in Snow Light Snow
10:54 AM 19.0 °F 13.9 °F -8.0 °F 30% 30.20 in 10.0 mi ESE 3.5 mph - 0.00 in   Clear
11:54 AM 23.0 °F 11.7 °F -8.0 °F 25% 30.18 in 9.0 mi NNW 11.5 mph - 0.00 in Snow Light Snow
12:54 PM 25.0 °F 16.3 °F -7.1 °F 24% 30.19 in 10.0 mi WNW 8.1 mph - 0.00 in   Clear
1:54 PM 26.1 °F 19.4 °F -7.1 °F 23% 30.22 in 10.0 mi West 5.8 mph - N/A   Clear
2:54 PM 26.1 °F 19.4 °F -8.0 °F 22% 30.23 in 10.0 mi West 5.8 mph - N/A   Clear
3:54 PM 26.1 °F 19.4 °F -8.0 °F 22% 30.27 in 10.0 mi Variable 5.8 mph - N/A   Clear
4:54 PM 21.0 °F 14.6 °F -7.1 °F 29% 30.29 in 10.0 mi Variable 4.6 mph - N/A   Clear
5:54 PM 16.0 °F 10.4 °F -5.1 °F 39% 30.31 in 10.0 mi Variable 3.5 mph - N/A   Clear
6:54 PM 15.1 °F 6.4 °F -8.0 °F 36% 30.32 in 10.0 mi NW 5.8 mph - N/A   Clear
7:54 PM 8.1 °F 1.4 °F -7.1 °F 50% 30.34 in 10.0 mi WSW 3.5 mph - N/A   Clear
8:54 PM 1.9 °F -7.6 °F -8.0 °F 63% 30.34 in 10.0 mi West 4.6 mph - N/A   Clear
9:54 PM -0.0 °F - -9.0 °F 66% 30.35 in 10.0 mi Calm Calm - N/A   Clear
10:54 PM -4.0 °F - -11.0 °F 72% 30.33 in 10.0 mi Calm Calm - N/A   Clear
11:54 PM -5.1 °F -17.6 °F -11.0 °F 76% 30.35 in 10.0 mi WNW 5.8 mph - N/A   Clear